VE1AIC-4 Weather Reports


time (UTC)temp
C
wind
direction
speed
KPH
gust
KPH
rain 1hr
cm
rain 24hr
cm
rain mn
cm
humidity
%
barometer
mb
20260508132053 8 251 0.0 3.2 0.03 0.99 0.05 99 1000.9
20260508131109 7 260 0.0 4.8 0.03 0.99 0.05 99 1000.9
20260508130044 8 202 3.2 8.0 0.03 0.99 0.05 99 1000.9
20260508125024 7 204 3.2 8.0 0.03 0.99 0.05 99 1000.8
20260508124034 7 96 1.6 4.8 0.00 0.97 0.03 99 1000.8
20260508123045 7 290 0.0 3.2 0.00 0.97 0.03 99 1000.8
20260508122028 7 229 0.0 4.8 0.00 0.97 0.03 99 1000.8
20260508121036 7 204 1.6 4.8 0.00 0.97 0.03 99 1000.7
20260508120041 7 243 0.0 4.8 0.00 0.97 0.03 99 1000.8
20260508115026 7 214 0.0 3.2 0.00 0.97 0.03 99 1000.7
20260508114130 6 214 1.6 4.8 0.00 0.97 0.03 99 1000.6
20260508113019 7 211 1.6 4.8 0.00 0.97 0.03 99 1000.6
20260508112125 6 230 1.6 3.2 0.00 0.97 0.03 99 1000.5
20260508111041 6 0.0 0.0 0.00 0.97 0.03 99 1000.5
20260508110021 6 171 4.8 4.8 0.00 0.97 0.03 99 1000.6
20260508105233 6 175 4.8 8.0 0.00 0.97 0.03 99 1000.8
20260508104154 6 199 3.2 8.0 0.00 0.99 0.03 99 1000.8
20260508103232 6 199 4.8 11.3 0.00 0.99 0.03 99 1000.6
20260508102033 6 181 3.2 11.3 0.00 0.99 0.03 99 1000.5
20260508101044 5 174 1.6 8.0 0.00 0.99 0.03 99 1000.6
20260508100055 5 0.0 0.0 0.00 0.99 0.03 99 1000.2
20260508095106 5 0.0 0.0 0.00 0.99 0.03 98 1000.1
20260508094018 5 166 1.6 3.2 0.00 0.99 0.03 98 1000.1
20260508093129 5 170 0.0 3.2 0.00 0.99 0.03 98 1000.2
20260508092107 4 181 1.6 8.0 0.00 0.99 0.03 98 1000.1
20260508091049 4 34 1.6 3.2 0.00 0.99 0.03 98 1000.3
20260508090029 3 0.0 0.0 0.00 0.99 0.03 98 1000.2
20260508085040 3 323 0.0 3.2 0.00 0.99 0.03 98 1000.0
20260508084040 3 0.0 0.0 0.00 0.99 0.03 98 1000.1
20260508083105 3 23 0.0 3.2 0.00 0.99 0.03 98 1000.0
20260508082107 4 11 1.6 4.8 0.00 0.99 0.03 98 1000.0
20260508081053 4 0.0 0.0 0.00 0.99 0.03 98 1000.2
20260508080032 4 0.0 0.0 0.00 0.99 0.03 98 1000.4
20260508075044 5 206 1.6 3.2 0.00 0.99 0.03 98 1000.5
20260508074128 5 0.0 0.0 0.00 0.99 0.03 98 1000.5
20260508073105 5 240 0.0 3.2 0.00 0.99 0.03 98 1000.3
20260508072133 5 0.0 0.0 0.00 0.99 0.03 98 1000.2
20260508071045 5 312 1.6 4.8 0.00 0.99 0.03 98 1000.2
20260508070036 5 319 1.6 3.2 0.03 0.99 0.03 98 1000.1
20260508065118 5 0.0 0.0 0.03 0.99 0.03 98 1000.2
20260508064047 6 246 0.0 3.2 0.03 0.99 0.03 98 1000.3
20260508063130 5 0.0 0.0 0.03 1.02 0.03 97 1000.4
20260508062018 5 336 0.0 3.2 0.03 1.02 0.03 97 1000.4
20260508061029 6 0.0 0.0 0.03 1.02 0.03 97 1000.4
20260508060039 6 12 1.6 4.8 0.00 0.99 0.00 97 1000.0
20260508055020 5 45 3.2 4.8 0.00 0.99 0.00 97 1000.2
20260508054030 6 28 3.2 4.8 0.00 0.99 0.00 97 1000.3
20260508053052 6 0.0 0.0 0.00 0.99 0.00 97 1000.7
20260508052022 6 0.0 0.0 0.00 0.99 0.00 97 1000.4
20260508051058 6 0.0 0.0 0.00 0.99 0.00 97 1000.7
20260508050104 6 0.0 0.0 0.00 0.99 0.00 97 1000.6
20260508045025 6 339 0.0 3.2 0.00 0.99 0.00 97 1000.7
20260508044111 6 0.0 0.0 0.00 0.99 0.00 97 1000.6
20260508043045 7 241 0.0 3.2 0.00 0.99 0.00 97 1000.2
20260508042132 7 245 0.0 4.8 0.00 0.99 0.00 97 1000.2
20260508041037 7 237 1.6 4.8 0.00 0.99 0.00 97 1000.3
20260508040017 7 243 3.2 4.8 0.00 0.99 0.00 97 1000.6
20260508035100 7 233 3.2 4.8 0.00 0.99 0.00 97 1000.7
20260508034039 7 244 3.2 4.8 0.00 0.99 0.00 97 1000.6
20260508033019 7 236 0.0 4.8 0.00 0.99 0.00 97 1000.7
20260508032030 7 256 1.6 8.0 0.00 0.99 0.00 97 1000.9
20260508031041 7 235 1.6 4.8 0.00 0.99 0.00 97 1001.0
20260508030021 8 239 1.6 3.2 0.00 0.99 0.00 97 1000.9
20260508025032 8 244 1.6 4.8 0.00 0.99 0.99 97 1000.9
20260508024043 8 217 0.0 3.2 0.00 0.99 0.99 97 1000.8
20260508023143 8 0.0 0.0 0.00 0.99 0.99 97 1000.8
20260508022034 8 207 0.0 3.2 0.00 0.99 0.99 97 1000.9
20260508021047 8 0.0 0.0 0.00 0.99 0.99 96 1001.0
20260508020025 8 216 1.6 3.2 0.00 0.99 0.99 96 1001.0
20260508015037 9 0.0 0.0 0.00 0.99 0.99 96 1001.0
20260508014019 9 0.0 0.0 0.00 0.99 0.99 96 1001.0
20260508013027 9 0.0 0.0 0.00 0.99 0.99 96 1000.8
20260508012058 9 0.0 0.0 0.00 0.99 0.99 96 1000.7
20260508011018 10 348 1.6 3.2 0.00 0.99 0.99 96 1000.7
20260508010029 10 0.0 0.0 0.00 0.99 0.99 95 1000.6
20260508005041 10 0.0 0.0 0.00 0.99 0.99 95 1000.8
20260508004021 10 0.0 0.0 0.00 0.99 0.99 95 1000.7
20260508003031 10 336 1.6 4.8 0.00 0.99 0.99 95 1000.7
20260508002042 10 327 3.2 4.8 0.00 0.99 0.99 95 1000.7
20260508001022 10 335 3.2 4.8 0.00 0.99 0.99 95 1000.5
20260508000033 10 0.0 0.0 0.00 0.99 0.99 95 1000.3
20260507235045 10 0.0 0.0 0.00 0.99 0.99 95 1000.3
20260507234027 10 0.0 0.0 0.00 0.99 0.99 95 1000.3
20260507233055 10 0.0 0.0 0.00 0.99 0.99 95 1000.2
20260507232126 10 0.0 0.0 0.00 0.99 0.99 95 1000.2
20260507231046 10 0.0 0.0 0.00 0.99 0.99 95 1000.2
20260507230037 11 0.0 0.0 0.00 0.99 0.99 95 1000.1
20260507225100 11 274 0.0 3.2 0.00 0.99 0.99 95 1000.2
20260507224029 11 0.0 0.0 0.00 0.99 0.99 95 1000.0
20260507223059 11 238 0.0 3.2 0.00 0.99 0.99 96 1000.0
20260507222039 11 244 0.0 4.8 0.00 0.99 0.99 96 1000.0
20260507221030 11 245 0.0 3.2 0.00 0.99 0.99 96 1000.1
20260507220041 11 0.0 0.0 0.00 0.99 0.99 96 1000.0
20260507215021 11 278 0.0 3.2 0.00 0.99 0.99 96 999.8
20260507214032 11 256 0.0 4.8 0.00 0.99 0.99 96 999.9
20260507213044 11 249 1.6 8.0 0.00 0.99 0.99 97 999.9
20260507212024 11 201 1.6 8.0 0.00 0.99 0.99 97 999.8
20260507211034 11 212 3.2 8.0 0.00 0.99 0.99 97 999.8
20260507210045 11 207 4.8 11.3 0.00 0.99 0.99 97 999.9
20260507205025 11 221 4.8 11.3 0.00 0.99 0.99 97 999.7
20260507204108 11 206 3.2 11.3 0.00 0.99 0.99 97 999.6
20260507203017 11 230 1.6 4.8 0.00 0.99 0.99 97 999.6
20260507202027 11 228 3.2 11.3 0.00 0.99 0.99 97 999.4
20260507201039 11 214 1.6 8.0 0.00 0.99 0.99 97 999.3
20260507200018 11 211 1.6 4.8 0.00 0.99 0.99 97 999.6
20260507195029 10 263 1.6 11.3 0.00 0.99 0.99 97 999.4
20260507194100 10 247 1.6 11.3 0.03 0.99 0.99 97 999.3
20260507193020 10 217 3.2 14.5 0.03 0.99 0.99 97 999.4
20260507192052 10 241 3.2 14.5 0.03 0.99 0.99 97 999.6
20260507191043 10 218 6.4 16.1 0.03 0.99 0.99 97 999.4
20260507190022 11 215 4.8 8.0 0.03 0.99 0.99 97 999.4
20260507185121 11 207 3.2 11.3 0.05 0.99 0.99 97 999.3
20260507184119 11 215 3.2 14.5 0.05 0.97 0.97 97 999.3
20260507183025 10 216 4.8 11.3 0.05 0.97 0.97 97 999.6
20260507182036 10 223 1.6 4.8 0.08 0.97 0.97 97 999.4
20260507181117 10 246 1.6 4.8 0.10 0.97 0.97 97 999.5
20260507180047 10 237 1.6 8.0 0.10 0.97 0.97 97 999.0
20260507175039 10 230 6.4 16.1 0.10 0.94 0.94 97 1000.2
20260507174039 10 179 19.3 33.8 0.10 0.91 0.91 97 1000.1
20260507173029 10 174 20.9 33.8 0.13 0.91 0.91 97 999.1
20260507172039 10 167 11.3 16.1 0.15 0.89 0.89 97 998.8
20260507171020 10 161 12.9 22.5 0.18 0.86 0.86 97 998.7
20260507170031 10 176 14.5 22.5 0.23 0.86 0.86 97 999.8
20260507165121 10 176 14.5 22.5 0.28 0.84 0.84 97 999.9
20260507164021 10 178 14.5 19.3 0.33 0.81 0.81 97 999.9
20260507163053 11 187 14.5 22.5 0.38 0.79 0.79 97 1000.1
20260507162119 11 169 14.5 24.1 0.41 0.74 0.74 97 1000.2
20260507161055 11 185 9.7 16.1 0.38 0.69 0.69 97 1000.3
20260507160125 11 183 9.7 16.1 0.41 0.64 0.64 97 1000.1
20260507155045 11 186 14.5 22.5 0.38 0.56 0.56 96 1000.4
20260507154046 11 182 14.5 24.1 0.36 0.48 0.48 96 1000.6
20260507153039 11 190 12.9 19.3 0.36 0.41 0.41 96 1001.0
20260507152016 11 206 11.3 22.5 0.28 0.33 0.33 95 1001.3
20260507151047 11 199 12.9 24.1 0.25 0.30 0.30 95 1001.2
20260507150141 11 183 17.7 33.8 0.18 0.23 0.23 95 1001.6
20260507145018 11 179 12.9 22.5 0.13 0.18 0.18 94 1001.6
20260507144133 12 192 16.1 24.1 0.08 0.13 0.13 93 1001.3
20260507143042 12 186 14.5 22.5 0.00 0.05 0.05 93 1001.4
20260507142020 12 188 22.5 38.6 0.00 0.05 0.05 92 1001.2
20260507141032 12 170 22.5 33.8 0.00 0.05 0.05 92 1001.2
20260507140042 12 184 22.5 33.8 0.00 0.05 0.05 92 1001.3
20260507135043 12 171 22.5 33.8 0.00 0.05 0.05 92 1001.1
20260507134034 12 185 29.0 46.7 0.00 0.05 0.05 92 1001.5
20260507133044 12 175 30.6 43.5 0.00 0.05 0.05 92 1001.8